Location: Unspecified
(48.2082°N, 0.0000°E)
Time: 17:17:14
(UTC+00:00)

Vanguard 1 - Pass Details

Date: 29 June 2019
Orbit: 653 x 3830 km, 34.3° (Epoch: 17 July)

Event Time Altitude Azimuth Distance (km) Brightness Sun altitude
Rises 20:43:22 0° 172° (S) 7,691 14.1 -5.7°
Reaches altitude 10° 20:54:36 10° 148° (SSE) 6,925 13.7 -7.0°
Maximum altitude 21:01:31 12° 130° (SE) 6,695 13.6 -7.8°
Drops below altitude 10° 21:08:11 10° 112° (ESE) 6,706 13.8 -8.5°
Sets 21:18:11 0° 88° (E) 7,199 14.1 -9.6°
